RH
65 59 58 62 62 68 82 91 98 99 100 99 99 95 87 74 60 49 36 33 30 32 35 36 37 46 59 61 56 47 45 50 66 57 52 46 50 54 57 60 64 66 62
79 82 82 89 97 100 100 100 100 99 98 96 89 78 65 56 47 38 35 33 34 40 52 63 60 66 68 64 58 58 49 51 58 71 59 58 61 60 64 68 69 68 64
82 88 100 99 99 98 100 98 95 91 85 78 72 61 53 46 40 36 37 48 59 63 61 67 77 80 72 58 52 51 50 50 56 65 70 68 69 68 71 76 76 75 72
88 95 98 99 97 88 84 80 73 70 69 63 54 48 43 41 40 45 52 57 66 78 82 87 88 73 65 55 51 56 61 61 62 67 70 73 76 74 82 86 88 81 81
79 83 81 81 84 78 71 76 75 72 65 56 50 48 53 60 64 68 76 88 90 84 84 70 56 54 69 72 71 72 71 70 68 69 80 82 84 85 91 86 92 91 92
63 65 66 70 72 75 75 76 72 68 68 68 60 53 58 76 88 90 89 85 73 49 46 46 43 46 47 50 71 71 71 72 74 78 78 90 95 89 88 90 92 98 88
68 72 75 77 79 80 78 82 89 90 73 68 68 74 93 98 95 94 92 80 44 39 38 44 50 58 58 56 59 74 76 77 78 80 89 88 89 84 79 88 99 100 94
89 88 81 81 85 84 84 86 81 79 80 87 94 97 100 100 98 51 45 45 46 50 55 61 63 61 59 78 78 76 76 83 82 81 83 80 78 85 94 93 90 87 92
100 100 100 94 99 98 98 100 99 98 100 100 100 99 93 99 97 80 54 54 56 58 64 69 72 71 72 81 78 92 86 78 74 72 81 86 87 82 79 85 91 98 90
100 100 100 100 99 100 100 100 100 99 99 98 91 94 96 89 86 65 61 58 65 70 72 70 71 83 82 78 78 78 80 74 70 84 83 73 63 66 71 83 90 100 96
100 99 100 100 98 100 99 99 99 99 74 50 55 51 50 56 69 76 78 72 77 80 78 81 81 90 80 78 76 77 77 78 88 85 71 71 71 73 77 83 91 100 100
100 100 100 100 100 99 100 85 48 42 43 47 46 44 43 43 60 74 79 79 79 81 83 84 86 83 80 77 77 83 83 88 78 78 85 87 90 86 81 84 86 90 95
99 100 100 100 94 66 49 44 41 41 41 45 42 39 41 45 55 68 75 81 83 84 82 87 86 77 80 69 86 90 90 79 86 95 98 95 91 89 87 86 84 87 88
99 91 61 44 42 40 39 39 38 36 36 36 35 42 51 60 71 76 79 80 80 80 80 83 70 69 72 81 76 78 81 87 98 96 96 94 92 94 95 94 97 94 100
51 45 45 41 40 37 33 32 33 37 35 39 47 55 58 62 73 78 78 79 80 81 87 65 68 79 81 82 82 84 85 88 93 94 98 100 98 98 96 93 96 100 100
45 42 41 41 42 45 56 66 67 65 70 67 69 68 67 72 75 80 82 81 82 80 74 78 83 85 89 92 93 91 87 90 93 98 98 99 100 99 99 98 100 100 100
39 40 40 41 41 40 42 38 38 54 65 67 74 72 75 78 81 84 82 84 76 80 76 83 87 90 92 94 96 97 96 94 96 96 98 99 98 98 99 100 100 100 98
38 37 35 34 28 29 32 34 34 36 40 41 44 72 79 83 86 84 84 65 61 72 82 88 91 93 95 96 96 98 96 94 96 98 97 97 96 99 99 99 99 99 97
37 36 35 29 31 33 34 33 36 43 48 51 52 53 70 87 86 76 78 68 77 78 83 86 90 94 95 97 98 98 98 98 100 98 97 96 94 99 99 99 99 98 95
38 35 29 31 31 32 33 37 44 49 53 57 59 62 76 86 84 69 69 72 75 78 83 88 90 94 97 98 98 99 98 96 96 98 97 96 94 99 100 99 99 98 97
36 34 27 27 30 34 37 40 47 52 58 63 65 66 84 90 76 73 74 72 75 78 84 90 93 95 96 97 98 99 98 92 96 97 97 95 96 100 100 100 100 100 99
34 31 26 27 32 38 39 45 50 57 64 69 67 66 88 74 71 72 73 71 73 79 85 93 95 96 97 97 98 97 96 94 98 97 96 98 98 98 100 99 99 99 97
30 27 26 30 35 51 53 49 54 62 65 69 70 72 72 71 71 73 74 70 71 77 84 90 96 96 97 98 98 97 98 96 99 98 99 100 98 98 99 100 100 99 98
25 26 27 31 37 39 43 51 56 62 68 69 71 72 72 72 74 77 74 69 70 75 82 89 94 97 99 99 98 91 94 99 100 100 100 98 99 99 100 100 100 99 99
25 27 28 31 38 45 44 54 59 65 68 68 69 70 71 74 77 76 72 66 68 74 81 89 93 96 98 98 98 98 98 100 100 100 99 100 100 100 100 100 98 99 99
26 26 28 30 33 38 45 52 60 64 65 66 69 69 70 73 76 75 71 66 65 74 85 91 91 95 97 94 97 97 97 98 100 98 100 99 100 100 100 99 99 100 97
Wind_Speed
16 16 16 16 16 19 23 24 23 22 23 23 25 26 26 27 27 26 24 22 20 17 13 10 8 5 1 3 4 5 9 9 7 8 14 20 23 24 26 25 26 28 31
14 14 14 12 11 12 15 14 15 17 19 22 24 25 27 28 26 25 24 20 17 15 11 8 7 3 1 4 8 9 10 11 12 11 17 21 22 24 25 26 28 29 32
12 10 9 6 2 4 6 8 13 17 19 21 25 27 27 26 27 24 22 20 15 12 9 7 4 0 4 6 9 10 10 12 14 15 16 20 23 23 26 28 29 30 29
9 8 8 5 6 9 12 15 17 21 26 26 27 28 28 28 27 25 21 17 14 10 7 3 2 3 7 4 9 10 10 12 15 16 20 22 22 24 23 24 23 25 29
12 15 12 13 14 17 20 20 21 22 26 29 33 32 28 24 21 21 18 12 10 6 3 2 1 2 2 2 6 9 11 12 16 20 19 19 21 20 18 23 24 26 25
17 17 18 20 22 22 23 24 25 26 28 31 32 32 29 25 17 14 13 10 8 6 3 1 1 2 5 6 8 9 11 14 16 18 20 17 17 22 23 23 23 22 11
16 16 18 21 24 25 24 25 25 28 34 32 29 27 25 20 14 12 10 10 7 4 3 2 2 4 7 11 12 11 12 14 15 19 21 23 23 26 30 29 24 21 23
14 13 17 21 25 26 27 28 29 29 30 28 25 21 20 17 14 13 11 9 8 5 4 4 7 11 13 13 14 16 16 16 18 18 21 25 24 23 22 23 25 28 26
12 13 12 20 24 27 27 26 25 26 26 23 22 18 16 14 11 8 7 5 4 3 4 8 11 12 13 12 15 15 17 19 21 19 17 19 21 24 24 24 25 19 19
12 14 16 20 25 26 25 24 22 21 22 20 17 14 12 12 7 6 3 2 4 5 8 10 10 11 12 13 15 17 17 23 20 21 22 26 24 24 20 18 20 20 18
15 17 19 22 25 24 23 20 19 18 18 17 15 13 13 11 11 8 6 5 7 8 9 11 13 12 13 15 15 16 17 18 17 21 23 24 23 23 24 23 22 20 19
19 21 22 22 20 19 19 17 16 16 16 16 14 12 10 7 6 6 6 6 7 10 10 11 12 14 15 14 13 13 13 14 17 19 21 23 23 26 27 27 26 25 25
21 20 18 17 16 14 15 14 14 11 11 10 9 8 8 6 5 5 6 7 8 9 10 9 13 13 12 12 11 11 11 14 16 18 20 23 25 26 27 30 30 29 30
18 18 16 16 15 13 13 11 11 9 9 8 7 7 5 5 5 6 8 10 10 12 12 11 12 10 9 10 11 12 13 14 14 18 21 24 25 27 29 28 30 30 27
18 16 15 14 14 14 14 11 11 10 7 7 7 5 4 4 6 7 10 11 11 11 9 13 13 13 14 15 16 17 17 18 19 20 22 22 26 27 29 30 28 27 19
17 15 14 14 13 13 14 15 11 10 8 7 6 6 4 4 6 7 9 9 9 10 9 11 13 14 15 17 18 20 20 20 21 22 22 23 25 27 29 30 24 22 22
14 13 11 10 9 8 7 6 6 6 6 6 6 5 5 6 5 8 8 9 8 8 10 12 13 15 17 18 19 19 21 23 23 22 23 26 27 27 24 27 26 23 24
11 10 9 8 7 7 6 5 4 3 3 4 4 6 6 6 6 8 9 9 11 10 11 13 15 16 18 20 21 21 23 25 25 22 25 26 26 25 26 25 24 24 24
11 10 9 9 7 7 6 4 4 3 3 4 6 5 6 4 6 8 8 10 10 11 12 14 16 18 20 20 21 22 23 24 21 23 25 27 28 26 26 25 26 28 28
12 10 9 8 6 5 3 3 2 2 3 5 7 8 9 6 10 11 11 10 9 11 13 15 18 20 20 20 21 22 23 26 26 25 27 28 29 28 26 28 27 26 26
12 10 8 6 4 3 2 1 1 3 4 5 7 8 8 9 11 11 12 11 11 12 14 16 19 21 21 21 22 23 24 26 26 27 28 30 30 29 30 29 29 27 25
11 9 7 5 3 2 1 0 2 3 5 6 8 8 8 9 10 12 12 12 12 12 13 16 20 21 21 21 21 23 24 26 27 28 29 30 31 32 32 26 28 26 26
10 9 7 5 3 3 2 2 3 4 6 7 8 9 9 10 12 12 13 14 13 13 14 17 20 22 21 21 21 21 24 26 26 27 30 34 34 30 26 29 28 27 26
10 8 7 5 4 4 3 4 5 6 8 9 9 10 11 12 14 14 15 15 15 15 16 18 20 22 23 22 22 21 23 26 25 26 31 34 29 29 28 30 28 28 29
10 8 7 6 6 5 5 6 7 8 9 10 11 12 13 14 15 15 16 15 15 16 18 19 22 23 22 23 23 23 23 23 23 27 27 33 28 29 29 29 29 29 27
10 8 7 7 6 6 6 7 9 10 11 11 12 13 15 17 17 18 18 17 17 17 19 21 23 22 23 24 24 23 21 22 23 24 28 32 28 28 29 30 30 25 28
Wind_Direction
323 316 313 303 282 260 251 242 234 225 214 204 197 192 185 179 180 180 172 166 160 151 142 145 140 133 208 242 232 244 244 240 232 271 281 294 298 304 309 311 313 315 317
350 344 337 321 299 258 236 229 225 210 199 187 180 173 170 169 167 162 153 149 148 143 143 142 129 108 127 269 273 261 266 270 265 268 290 295 300 309 309 309 312 314 314
6 6 359 356 327 233 187 195 196 181 170 163 163 161 159 156 149 146 145 141 139 138 134 121 121 305 255 262 269 269 279 285 282 277 286 296 299 309 310 309 312 314 313
29 57 60 75 125 131 131 136 139 148 147 143 140 139 140 139 136 133 134 132 129 131 133 157 134 237 259 276 281 286 288 289 289 288 293 296 303 313 306 307 306 308 305
69 69 85 100 111 117 116 120 120 123 123 132 134 130 128 127 130 130 129 135 128 114 88 9 30 287 274 314 294 296 294 295 296 297 298 299 301 303 300 307 300 303 302
87 87 95 96 95 94 99 111 122 118 114 121 121 125 123 117 122 129 127 102 87 81 82 73 6 302 299 307 303 299 300 301 304 306 302 296 297 304 308 305 301 302 306
80 90 94 101 102 102 106 105 104 110 121 119 117 120 118 116 121 104 93 101 123 117 88 46 359 313 320 316 314 313 309 301 297 299 302 301 300 306 308 299 290 284 289
62 77 104 109 106 111 114 114 115 118 117 117 116 117 120 117 111 103 99 99 88 70 40 4 337 328 323 319 323 313 307 305 306 305 300 300 302 305 302 301 298 295 292
61 65 79 108 108 112 112 114 117 115 112 111 112 111 112 113 105 105 97 80 83 48 8 347 328 323 328 326 316 320 316 311 311 309 299 298 300 301 301 303 297 299 298
84 100 113 113 115 114 114 115 113 113 108 101 104 120 120 110 112 73 56 48 26 2 343 333 335 326 322 319 320 322 321 315 318 314 310 311 313 313 313 301 300 287 293
111 116 117 115 115 115 112 111 111 108 105 107 109 107 114 109 85 78 52 17 12 349 335 337 341 337 329 323 318 311 310 314 311 309 311 315 320 323 325 324 317 301 287
121 114 110 110 110 115 116 112 109 112 118 121 114 98 85 81 67 62 42 24 357 339 340 341 341 334 329 324 316 315 315 312 311 317 321 319 320 325 326 324 321 314 303
112 108 109 111 110 112 117 118 118 119 115 109 99 85 70 59 61 46 23 3 351 340 341 336 333 331 327 325 332 327 325 326 329 327 319 315 321 324 326 327 327 322 316
119 118 118 116 113 110 107 108 109 107 104 98 91 87 77 58 53 26 12 357 352 345 335 328 331 331 336 336 338 342 342 340 328 321 320 323 327 328 323 327 319 320 309
124 123 121 118 114 110 101 95 96 87 89 107 100 79 46 30 16 358 353 349 345 342 324 331 345 351 350 351 349 347 346 344 339 334 328 320 322 322 321 328 320 311 289
131 129 125 122 118 115 111 104 83 78 88 76 60 32 35 358 343 351 350 345 341 341 335 346 345 347 344 342 341 340 340 340 339 333 328 328 321 321 318 318 310 303 296
138 135 133 132 127 124 122 113 110 89 84 65 50 39 20 355 349 350 350 340 345 341 353 346 342 340 336 334 334 333 330 333 334 332 331 331 328 316 309 309 309 304 302
146 144 139 135 133 129 122 113 106 88 45 13 16 15 11 1 356 354 351 342 354 358 354 345 338 336 333 331 331 331 330 332 333 332 330 329 327 317 310 306 305 302 300
158 153 148 141 135 128 119 98 73 54 24 356 352 6 1 358 347 346 350 352 342 342 343 339 338 334 331 329 329 327 326 326 323 319 330 334 330 319 305 302 302 304 306
159 154 150 144 136 124 103 88 65 25 353 342 344 346 353 331 337 345 343 340 335 334 336 335 336 333 331 328 325 324 325 330 329 329 330 330 327 317 302 300 300 300 302
159 158 158 152 146 130 116 82 19 346 334 333 333 336 338 322 326 330 329 333 331 330 332 334 333 332 331 327 325 324 326 327 325 325 327 324 322 309 306 300 297 296 299
168 167 164 163 163 169 188 274 327 324 323 327 330 329 328 320 323 324 325 327 323 325 330 331 331 330 330 326 325 323 322 323 321 322 324 320 315 312 307 308 312 308 307
176 175 176 177 183 178 215 284 299 308 316 318 317 318 321 323 323 322 323 323 320 322 329 331 331 331 331 329 328 324 318 319 317 318 319 318 310 305 311 314 312 310 308
185 188 190 196 206 221 248 272 291 303 306 308 309 313 316 318 317 318 322 321 318 320 325 329 333 333 331 329 327 324 319 317 314 319 320 308 307 316 313 311 310 311 309
193 197 203 213 218 240 265 283 291 293 296 300 306 312 315 315 315 317 320 318 316 318 323 329 334 335 334 332 329 325 322 320 314 311 320 317 316 314 311 309 312 310 317
198 204 214 225 233 250 269 278 283 290 296 301 303 306 311 313 314 315 317 316 315 317 324 330 336 337 336 334 332 330 328 327 326 327 319 319 317 315 315 313 313 319 317